Showing default

SOLIDARIDAD 1, 22911

Orbit data source: Space-Track

SOLIDARIDAD 1, 22911 is a payload satellite owned by Telmex (MX) in GEO that was launched on Sat, 20 Nov 1993 UTC via an ARIANE 44LP launch vehicle from the French Guiana (FRGUI). Payload-class satellites include a variety of spacecraft equipped with specific instruments for various scientific and technological missions. These include communications satellites like Starlink; space stations such as the ISS; scientific satellites like the Hubble; Earth observation satellites from companies like Planet Labs, Umbra, and HawkEye 360; GPS; miniature CubeSats for education and research; and military/defense satellites.

Loading next visibility...
Identifier
22911, 1993-073A
Orbit
GEO
Country
Flag of MXMX / MEX
Related business
Manufacturer
Hughes
Mission
Non-operational Commercial Communications
Bus & Motor
HS-601, R-4D-11
Mass
2,776 kg wet, 1,291 kg dry
Launch date (UTC)
1993-11-20 (33 years ago)
Launch vehicle
ARIANE 44LP
Launch site
French Guiana (FRGUI)
Object type
Payload
Rocket body
Debris
Shape & HBR
Hex Poly + 2 Pan, 10.5 m
Radar Cross Section
24.763 m², Large (>1 m²)

Expand to show TLE details & history
Last TLE update: 13 hours ago

TLE from 13 hours ago
0 SOLIDARIDAD 1
1 22911U 93073A   26266.36631611 -.00000127  00000-0  00000-0 0  9997
2 22911  14.4090   1.6219 0010193 245.0008 145.4448  1.00276848118856
Epoch: 2026-09-23T08:47Z
TLE epoch observation values (Epoch: 2026-09-23T08:47:29.711Z)
Latitude
7.25276°
Longitude
-102.7769°
Altitude
35,819.432 km
Speed
3.072 km/s
True Right ascension
02h 05m 15s
True Declination
7° 14' 44"
Sunlit
Object was in daylight at epoch
Visualization orbit readout
Latitude
Unknown
Longitude
Unknown
Altitude
Unknown
Speed
Unknown
Apparent Right ascension
Unknown
Apparent Declination
Unknown
Sunlit
N/A
Visualization observer readout
Local Sidereal Time
15:22:45
Azimuth
Unknown
Elevation
Unknown
Doppler factor
Unknown
Orbital elements
Apogee altitude
35,829.127 km
Perigee altitude
35,743.171 km
Semi-major axis
42,164.286 km
Eccentricity
0.00102
Inclination
14.409°
RAAN
1.6219°
Arg. of periapsis
245.0008°
True anomaly
145.51098°
Mean anomaly
145.4448°
Eccentric anomaly
145.4779°
Mean motion
0.25068 °/min
Orbital period
1,436.07 mins
BSTAR
0
Loading maneuver chart data...
Computing Atmospheric mass density...
Loading historical data...
Loading historical data...
Loading historical data...
Loading historical data...
Loading historical data...
Loading historical data...
Loading historical data...

Documentation

Showing up to 5 results
|